Probability
0 0 0 0 0 0 0 0 0 0 0 0 0 0 0 0 0 0 0 0 0 0 0 0 0 0 0 0 0 0 0 0 0 0 0 0 0 0
0 0 0 0 0 0 0 0 0 0 0 0 0 0 0 0 0 0 0 0 0 0 0 0 0 0 0 0 0 0 0 0 0 0 0 0 0 0
0 0 0 0 0 0 0 0 0 0 0 0 0 0 0 0 0 0 0 0 0 0 0 0 0 0 0 0 0 0 0 0 0 0 0 0 0 0
0 0 0 0 0 0 0 0 0 0 0 0 0 0 0 0 0 0 0 0 0 0 0 0 0 0 0 0 0 0 0 0 0 0 0 0 0 0
0 0 0 0 0 0 0 0 0 0 0 0 0 0 0 0 0 0 0 0 0 0 0 0 0 0 0 0 0 0 0 0 0 0 0 0 0 0
0 0 0 0 0 0 0 0 0 0 0 0 0 0 0 0 0 0 0 0 0 0 0 0 0 0 0 0 0 0 0 0 0 0 0 0 0 0
0 0 0 0 0 0 0 0 0 0 0 0 0 0 0 0 0 0 0 0 0 0 0 0 0 0 0 0 0 0 0 0 0 0 0 0 0 0
0 0 0 0 0 0 0 0 0 0 0 0 0 0 0 0 0 0 0 0 0 0 0 0 0 0 0 0 0 0 0 0 0 0 0 0 0 0
0 0 0 0 0 0 0 0 0 0 0 0 0 0 0 0 0 0 0 0 0 0 0 0 0 0 0 0 0 0 0 0 0 0 0 0 0 0
0 0 0 0 0 0 0 0 0 0 0 0 0 0 0 0 0 0 0 0 0 0 0 0 0 0 0 0 0 0 0 0 0 0 0 0 0 0
0 0 0 0 0 0 0 0 0 0 0 0 0 0 0 0 0 0 0 0 0 0 0 0 0 0 0 0 0 0 0 0 0 0 0 0 0 0
0 0 0 0 0 0 0 0 0 0 0 0 0 0 0 0 0 0 0 0 0 0 0 0 0 0 0 0 0 0 0 0 0 0 0 0 0 0
0 0 0 0 0 0 0 0 0 0 0 0 0 0 0 0 0 0 0 0 0 0 0 0 0 0 0 0 0 0 0 0 0 0 0 0 0 0
0 0 0 0 0 0 0 0 0 0 0 0 0 0 0 0 0 0 0 0 0 0 0 0 0 0 0 0 0 0 0 0 0 0 0 0 0 0
0 0 0 0 0 0 0 0 0 0 0 0 0 0 0 0 0 0 0 0 0 0 0 0 0 0 0 0 0 0 0 0 0 0 0 0 0 0
0 0 0 0 0 0 0 0 0 0 0 0 0 0 0 0 0 0 0 0 0 0 0 0 0 0 0 0 0 0 0 0 0 0 0 0 0 0
0 0 0 0 0 0 0 0 0 0 0 0 0 0 0 0 0 0 0 0 0 0 0 0 0 0 0 0 0 0 0 0 0 0 0 0 0 0
0 0 0 0 0 0 0 0 0 0 0 0 0 0 0 0 0 0 0 0 0 0 0 0 0 0 0 0 0 0 0 0 0 0 0 0 0 0
0 0 0 0 0 0 0 0 0 0 0 0 0 0 0 0 0 0 0 0 0 0 0 0 0 0 0 0 0 0 0 0 0 0 0 0 0 0
0 0 0 0 0 0 0 0 0 0 0 0 0 0 0 0 0 0 0 0 0 0 0 0 0 0 0 0 0 0 0 0 0 0 0 0 0 0
0 0 0 0 0 0 0 0 0 0 0 0 0 0 0 0 0 0 0 0 0 0 0 0 0 0 0 0 0 0 0 0 0 0 0 0 0 0
0 0 0 0 0 0 0 0 0 0 0 0 0 0 0 0 0 0 0 0 0 0 0 0 0 0 0 0 0 0 0 0 0 0 0 0 0 0
0 0 0 0 0 0 0 0 0 0 0 0 0 0 0 0 0 0 0 0 0 0 0 0 0 0 0 0 0 0 0 0 0 0 0 0 0 0
Height
5602 5597 5592 5588 5583 5579 5575 5571 5568 5566 5567 5564 5558 5554 5551 5549 5548 5548 5549 5551 5552 5552 5554 5555 5556 5559 5561 5564 5566 5569 5572 5575 5578 5581 5583 5585 5586 5587
5586 5581 5576 5572 5568 5564 5560 5556 5552 5549 5549 5549 5544 5540 5538 5536 5535 5535 5536 5537 5538 5539 5540 5542 5543 5545 5547 5549 5552 5555 5558 5561 5564 5568 5570 5572 5574 5574
5570 5566 5562 5557 5553 5550 5546 5543 5539 5536 5535 5535 5531 5528 5526 5525 5524 5524 5525 5526 5527 5528 5529 5530 5532 5533 5535 5537 5540 5543 5545 5548 5551 5555 5557 5559 5561 5563
5555 5551 5547 5543 5540 5536 5533 5530 5527 5524 5522 5522 5521 5518 5516 5515 5515 5515 5515 5516 5517 5518 5519 5520 5522 5523 5525 5527 5529 5531 5534 5536 5540 5543 5546 5548 5550 5552
5541 5537 5534 5529 5526 5523 5520 5518 5516 5513 5511 5510 5510 5508 5507 5506 5506 5507 5508 5508 5509 5510 5511 5512 5514 5515 5517 5519 5520 5522 5525 5527 5531 5533 5536 5538 5540 5542
5528 5524 5520 5517 5514 5511 5509 5507 5505 5504 5502 5500 5500 5500 5499 5499 5499 5500 5501 5502 5502 5503 5504 5505 5507 5509 5510 5511 5513 5515 5517 5520 5522 5525 5527 5529 5531 5533
5515 5511 5508 5505 5503 5501 5499 5498 5496 5494 5493 5492 5492 5491 5492 5491 5492 5493 5494 5495 5496 5497 5498 5500 5501 5503 5504 5506 5508 5510 5512 5514 5516 5518 5520 5522 5524 5525
5503 5500 5497 5495 5493 5491 5490 5489 5488 5487 5486 5485 5485 5485 5485 5485 5486 5487 5488 5490 5491 5493 5494 5496 5497 5499 5500 5502 5504 5505 5507 5509 5511 5513 5514 5515 5516 5517
5492 5489 5487 5486 5484 5483 5482 5481 5480 5479 5479 5478 5478 5479 5479 5479 5480 5482 5483 5485 5486 5488 5490 5492 5493 5495 5497 5498 5500 5501 5503 5505 5506 5507 5508 5509 5509 5510
5482 5480 5479 5478 5476 5475 5475 5474 5474 5474 5473 5472 5473 5474 5474 5475 5476 5477 5479 5481 5483 5485 5487 5489 5490 5492 5494 5495 5496 5497 5499 5500 5501 5502 5502 5502 5502 5502
5474 5472 5470 5470 5470 5469 5468 5468 5468 5468 5468 5467 5468 5469 5470 5471 5472 5474 5476 5478 5480 5482 5483 5485 5487 5489 5491 5492 5492 5493 5495 5495 5496 5497 5497 5497 5496 5496
5466 5464 5464 5463 5463 5462 5462 5462 5463 5463 5463 5464 5465 5466 5467 5468 5470 5471 5473 5475 5477 5479 5480 5482 5484 5486 5488 5489 5489 5490 5490 5491 5491 5492 5492 5491 5490 5490
5458 5458 5457 5457 5457 5456 5457 5457 5457 5458 5458 5460 5461 5462 5464 5466 5467 5469 5471 5473 5474 5476 5478 5480 5481 5483 5484 5486 5486 5486 5487 5487 5487 5487 5487 5486 5485 5484
5452 5451 5451 5451 5451 5451 5452 5452 5452 5453 5455 5456 5458 5459 5461 5463 5464 5466 5468 5470 5472 5474 5476 5478 5479 5480 5482 5483 5483 5484 5483 5483 5483 5482 5482 5481 5480 5479
5445 5445 5445 5446 5446 5446 5447 5447 5448 5450 5451 5453 5454 5456 5458 5460 5462 5464 5466 5468 5470 5472 5474 5475 5476 5478 5478 5479 5480 5480 5479 5479 5478 5477 5477 5476 5475 5474
5439 5439 5439 5440 5440 5441 5442 5443 5444 5446 5448 5450 5452 5453 5456 5458 5460 5462 5465 5466 5468 5470 5471 5472 5473 5474 5475 5475 5475 5475 5475 5475 5474 5473 5473 5472 5471 5470
5433 5433 5434 5435 5435 5436 5438 5439 5441 5443 5445 5447 5449 5451 5454 5456 5458 5460 5462 5464 5466 5467 5468 5469 5470 5471 5471 5472 5471 5471 5471 5471 5471 5470 5470 5469 5467 5466
5427 5428 5429 5430 5431 5433 5434 5436 5438 5440 5442 5445 5447 5449 5451 5454 5456 5458 5459 5461 5463 5465 5466 5467 5467 5468 5469 5468 5468 5468 5468 5468 5468 5467 5466 5465 5464 5463
5422 5423 5425 5426 5428 5429 5432 5434 5436 5438 5440 5442 5445 5447 5449 5452 5454 5456 5458 5459 5461 5462 5463 5464 5465 5465 5466 5466 5466 5466 5465 5465 5465 5464 5464 5463 5462 5461
5418 5419 5421 5423 5425 5427 5429 5431 5433 5436 5438 5440 5442 5445 5447 5450 5452 5454 5456 5457 5459 5460 5461 5462 5462 5463 5463 5464 5464 5464 5464 5464 5463 5463 5462 5461 5460 5460
5415 5417 5419 5420 5422 5424 5426 5428 5431 5433 5435 5438 5440 5443 5445 5448 5450 5452 5454 5455 5456 5458 5459 5459 5460 5460 5461 5461 5462 5462 5462 5462 5462 5462 5461 5461 5460 5459
5412 5414 5416 5418 5420 5422 5424 5426 5429 5431 5433 5436 5439 5441 5444 5446 5448 5450 5452 5453 5455 5456 5457 5458 5458 5459 5459 5460 5460 5460 5461 5461 5461 5461 5461 5461 5460 5459
5410 5412 5414 5416 5419 5421 5423 5425 5428 5430 5433 5435 5438 5440 5443 5445 5447 5448 5450 5452 5453 5454 5456 5457 5458 5458 5459 5459 5460 5460 5461 5461 5462 5461 5461 5461 5461 5460
Wind_Speed
63 63 64 64 63 62 61 62 62 60 57 55 55 54 53 52 52 51 51 50 49 49 49 50 51 52 52 53 54 54 54 54 55 54 55 54 52 50
62 62 62 60 59 58 58 58 59 58 54 50 49 48 48 47 46 46 46 44 43 43 43 44 45 46 47 47 49 50 51 51 52 52 51 51 49 47
60 59 57 56 56 56 56 55 54 52 50 46 45 44 44 42 42 42 40 39 38 38 39 39 39 39 41 42 43 46 47 47 48 47 48 47 46 44
57 56 55 55 55 54 54 52 50 48 46 43 41 40 39 38 38 37 35 34 34 34 35 35 35 35 36 37 38 40 40 41 41 41 41 41 40 41
55 54 53 53 52 51 49 47 46 45 43 41 38 36 34 34 33 32 31 30 30 29 29 30 30 30 30 32 33 34 33 33 34 35 36 37 37 38
52 52 51 50 48 46 44 43 41 40 39 38 34 33 32 31 29 28 27 27 26 25 24 25 26 26 26 27 29 28 28 28 30 32 33 34 34 35
49 48 46 45 43 42 41 39 38 36 35 33 32 30 29 27 26 26 25 23 23 21 21 22 23 23 23 24 23 24 24 25 27 29 30 30 31 32
46 44 42 41 39 38 37 36 35 33 32 31 29 28 25 23 23 23 23 22 19 17 18 20 20 20 20 20 20 21 23 25 26 27 27 28 29 30
42 40 38 37 35 34 33 33 31 30 28 27 25 24 22 20 21 20 20 19 17 16 18 18 19 19 19 19 20 21 21 22 24 24 25 27 28 29
38 36 35 33 32 31 30 29 28 27 25 24 22 21 19 19 19 18 18 17 16 16 17 18 18 18 18 18 18 18 19 20 21 23 24 25 26 27
35 33 31 30 29 29 27 26 26 25 23 22 21 20 18 17 17 17 17 15 15 15 15 16 17 18 17 17 18 18 18 19 19 20 21 22 24 25
31 29 29 28 27 26 25 23 23 22 21 20 19 18 16 15 15 16 15 14 14 13 14 15 15 16 16 16 16 16 17 18 18 19 19 20 22 23
28 26 25 25 24 23 22 22 21 19 19 19 18 18 16 16 16 15 14 13 12 12 13 13 13 13 14 14 14 15 15 16 17 18 18 19 20 20
25 24 23 22 21 21 20 20 19 18 17 17 17 17 16 16 15 14 13 11 10 10 11 11 11 11 12 13 14 14 15 16 17 17 17 17 18 18
23 21 21 20 20 20 19 18 18 17 17 16 15 15 15 14 14 13 12 10 9 9 9 10 10 11 12 13 14 15 16 16 16 15 15 17 17 17
22 20 19 19 18 17 17 17 16 16 15 14 13 12 13 13 12 12 11 11 10 10 10 10 10 10 11 13 14 15 14 14 14 14 15 15 14 14
19 18 17 17 17 16 15 14 14 14 14 13 12 12 13 12 12 11 11 11 10 10 9 10 10 11 11 12 12 12 12 12 12 12 12 11 11 11
17 16 16 15 14 13 13 13 13 13 14 13 12 12 13 12 11 11 10 10 10 9 9 9 9 10 10 10 10 10 10 9 9 9 9 9 9 9
15 14 14 13 12 12 12 13 13 13 13 13 13 12 12 11 11 10 10 9 9 8 9 9 9 9 8 8 8 8 7 7 7 6 6 6 6 6
14 13 13 12 11 11 11 12 13 12 12 12 13 12 12 11 10 9 9 8 9 9 9 9 8 7 6 6 6 6 6 5 5 4 3 4 4 4
13 12 12 12 11 11 10 11 12 12 11 12 12 12 11 10 10 9 9 9 9 8 8 8 7 6 5 5 4 4 4 4 3 2 2 2 2 3
12 12 12 11 11 10 10 10 11 11 11 12 11 11 10 9 9 9 9 9 8 7 7 6 6 5 4 3 3 3 3 3 2 1 0 1 2 3
11 11 11 11 10 10 10 10 11 11 11 12 11 11 10 9 8 8 9 8 7 7 6 6 6 5 4 3 3 4 4 4 3 2 2 2 3 4
Wind_Direction
289 288 288 288 287 287 286 285 285 286 285 284 282 280 278 275 274 273 272 270 268 267 266 264 263 262 260 259 258 258 259 259 261 262 263 263 264 265
289 289 288 287 287 287 286 285 286 286 286 285 282 280 278 275 274 274 273 271 269 267 266 265 264 262 261 260 258 258 258 260 261 261 261 261 263 265
289 289 288 287 287 287 287 287 286 285 285 284 282 280 277 273 273 273 273 271 268 266 266 264 263 263 263 261 260 260 260 261 260 259 259 260 261 261
288 287 287 287 287 287 287 286 285 284 284 284 282 280 276 273 272 273 273 271 268 266 264 264 263 263 263 263 261 259 259 259 257 258 257 258 258 259
288 286 286 287 287 286 286 285 284 283 284 284 281 279 276 272 270 271 271 271 268 266 264 263 262 264 263 263 261 259 259 256 255 256 257 257 258 260
288 287 286 286 286 285 285 284 283 283 283 281 278 277 274 271 270 270 270 269 268 267 265 264 262 264 260 260 260 260 258 255 255 257 258 258 258 261
288 286 285 284 284 283 283 283 283 282 281 277 275 275 275 271 269 268 267 266 266 262 264 264 262 260 259 259 257 258 255 255 256 258 258 258 259 262
288 285 284 283 282 282 282 282 281 280 277 276 276 274 273 268 263 263 263 261 261 261 263 261 258 259 259 254 255 255 254 254 258 260 261 261 263 265
288 285 283 282 281 281 280 279 278 277 275 275 273 270 266 261 261 260 257 255 254 254 256 255 257 258 257 253 254 253 255 259 263 263 264 263 266 269
287 285 282 280 280 279 278 277 275 275 273 272 269 264 258 258 257 252 250 249 251 252 254 251 253 258 256 253 254 255 257 262 266 265 267 269 271 272
286 284 280 277 278 278 276 274 273 272 269 266 262 256 253 253 250 245 245 245 251 252 252 252 251 254 254 252 255 257 260 264 265 266 267 270 273 275
284 281 278 277 277 277 274 273 271 268 263 258 255 251 250 249 245 240 241 248 253 251 248 252 253 253 249 246 253 258 262 266 268 271 272 273 276 279
282 279 276 274 274 271 270 270 267 262 258 253 251 250 248 244 238 238 242 246 249 244 245 248 251 253 250 249 256 263 266 269 273 276 275 275 278 279
281 278 274 270 267 267 268 266 259 253 250 248 248 248 244 239 234 233 235 239 241 238 241 246 250 250 255 259 264 267 270 273 275 276 274 278 282 284
277 274 270 264 264 266 263 257 251 249 247 247 245 242 236 230 225 226 231 237 235 232 237 246 250 254 260 263 267 273 277 276 275 279 281 285 288 286
273 268 264 262 263 260 254 250 250 247 243 239 235 232 223 218 218 224 231 233 231 234 241 247 251 260 263 267 272 277 277 276 280 284 287 288 287 287
267 262 260 261 257 252 245 244 242 236 230 230 233 227 222 219 219 223 226 227 230 234 239 246 254 259 265 272 277 275 272 274 278 282 284 286 290 291
263 259 255 253 247 240 235 234 234 230 229 233 231 225 220 217 221 224 224 223 229 234 238 248 254 259 267 272 273 268 266 271 276 282 290 293 297 299
256 250 247 240 235 232 229 227 228 227 231 231 226 221 217 216 219 223 223 224 227 229 237 248 254 259 263 266 268 268 268 270 273 282 291 298 304 307
247 241 235 229 226 226 225 225 226 227 225 222 220 216 212 213 217 217 219 221 223 229 239 246 249 249 250 260 270 269 264 263 267 282 296 311 315 320
233 227 223 221 221 220 222 222 220 220 217 214 210 208 206 205 205 206 213 219 224 229 237 242 237 233 235 246 255 253 249 246 250 271 305 329 338 350
220 217 216 215 216 216 215 212 209 208 206 201 199 199 193 193 198 203 211 215 219 222 227 226 219 217 218 221 228 224 215 202 188 168 60 31 29 24
209 211 211 208 207 203 201 199 197 198 198 194 194 190 187 192 199 203 205 206 210 211 210 207 201 196 185 174 171 168 159 145 133 118 108 79 49 39